User: anonymous   Login
Location: Arbon
(43.0005°N, 0.7472°E)
Time: 20:14:34
(UTC+00:00)
Language:

Cosmos 2279 Rocket - Orbit

View from above orbital plane
View from above orbital plane
View from above satellite
View from above satellite

Ground track
Ground track

The orbit data is extracted from the following two-line orbital elements,

1 23093U 94024B   20304.23086227 +.00000125 +00000-0 +10939-3 0  9998
2 23093 082.9431 278.7578 0010839 146.8570 213.3268 13.77832953800700
Epoch (UTC): 30 October 2020 05:32:26
Eccentricity: 0.0010839
inclination: 82.9431°
perigee height: 963 km
apogee height: 979 km
right ascension of ascending node: 278.7578°
argument of perigee: 146.8570°
revolutions per day: 13.77832953
mean anomaly at epoch: 213.3268°
orbit number at epoch: 80070

The dashed part of the orbit path shows where the satellite is in the earth's shadow,  

DLR